Weather History for KOZR - March, 2012

Change the Weather History Date:

Monday, March 5, 2012

  Actual Average Record
Temperature  
Mean Temperature 56 °F -  
Max Temperature 71 °F 65 °F 80 °F (1997)
Min Temperature 42 °F 43 °F 21 °F (2002)
Degree Days  
Heating Degree Days 8    
Growing Degree Days 6 (Base 50)    
Moisture  
Dew Point 33 °F    
Average Humidity 45    
Maximum Humidity 81    
Minimum Humidity 23    
Precipitation  
Precipitation 0.00 in - - ()
Sea Level Pressure  
Sea Level Pressure 30.31 in    
Wind  
Wind Speed 7 mph (NW)    
Max Wind Speed 16 mph    
Max Gust Speed 22 mph    
Visibility 10 miles    
Events      
Averages and records for this station are not official NWS values.
T = Trace of Precipitation, MM = Missing Value Source: NWS Daily Summary

Daily Weather History Graph

Daily Weather History Graph

Search for Another Location

Airport or City:

Trip Planner

Search our weather history database for the weather conditions in past years. The results will help you decide how hot, cold, wet, or windy it might be!

Date:

Astronomy

Mar. 05, 2012 Rise Set
Actual Time 6:04 AM CST 5:44 PM CST
Civil Twilight 5:40 AM CST 6:08 PM CST
Nautical Twilight 5:12 AM CST 6:36 PM CST
Astronomical Twilight 4:44 AM CST 7:04 PM CST
Moon 3:09 PM CST (3/5) 3:53 AM CST (3/5)
Length of Visible Light 12h 28m
Length of Day
11h 39m
Waxing Gibbous, 91% of the Moon is Illuminated
Mar 5
Waxing Gibbous
Mar 8
Full
Mar 14
Last Quarter
Mar 22
New
Mar 30
First Quarter

Hourly Weather History & Observations

Time (CST) Temp. Windchill Dew Point Humidity Pressure Visibility Wind Dir Wind Speed Gust Speed Precip Events Conditions
12:55 AM 44.2 °F 42.7 °F 34.2 °F 68% 30.21 in 10.0 mi SW 3.5 mph - N/A   Clear
1:55 AM 43.5 °F 40.9 °F 35.2 °F 73% 30.21 in 10.0 mi SSW 4.6 mph - N/A   Clear
2:55 AM 43.3 °F - 36.3 °F 76% 30.21 in 10.0 mi Calm Calm - N/A   Clear
3:55 AM 42.8 °F 41.1 °F 37.2 °F 81% 30.22 in 10.0 mi SW 3.5 mph - N/A   Clear
4:55 AM 45.1 °F 43.7 °F 38.7 °F 78% 30.24 in 10.0 mi SW 3.5 mph - N/A   Clear
5:55 AM 45.9 °F 42.9 °F 39.0 °F 77% 30.25 in 10.0 mi WSW 5.8 mph - N/A   Clear
6:55 AM 48.7 °F - 39.7 °F 71% 30.27 in 10.0 mi WSW 6.9 mph - N/A   Clear
7:55 AM 54.3 °F - 40.1 °F 59% 30.30 in 10.0 mi West 9.2 mph - N/A   Clear
8:55 AM 59.5 °F - 39.2 °F 47% 30.32 in 10.0 mi WNW 12.7 mph - N/A   Clear
9:55 AM 63.9 °F - 38.5 °F 39% 30.33 in 10.0 mi NW 11.5 mph - N/A   Clear
10:55 AM 66.7 °F - 37.9 °F 35% 30.33 in 10.0 mi NNW 9.2 mph - N/A   Clear
11:55 AM 69.3 °F - 38.3 °F 32% 30.32 in 10.0 mi NNW 11.5 mph 17.3 mph N/A   Clear
12:55 PM 70.9 °F - 37.2 °F 29% 30.30 in 10.0 mi West 15.0 mph - N/A   Clear
1:55 PM 71.2 °F - 34.2 °F 26% 30.29 in 10.0 mi NNW 13.8 mph 17.3 mph N/A   Clear
2:55 PM 71.1 °F - 31.5 °F 23% 30.29 in 10.0 mi WNW 16.1 mph 21.9 mph N/A   Clear
3:55 PM 70.2 °F - 30.2 °F 23% 30.29 in 10.0 mi NW 10.4 mph 19.6 mph N/A   Clear
4:55 PM 68.0 °F - 28.4 °F 23% 30.31 in 10.0 mi WNW 8.1 mph - N/A   Clear
5:55 PM 61.9 °F - 26.2 °F 26% 30.34 in 10.0 mi North 4.6 mph - N/A   Clear
6:55 PM 59.7 °F - 23.5 °F 25% 30.36 in 10.0 mi NNW 6.9 mph - N/A   Clear
7:55 PM 56.8 °F - 24.1 °F 28% 30.38 in 10.0 mi North 9.2 mph - N/A   Clear
8:55 PM 55.0 °F - 23.7 °F 30% 30.40 in 10.0 mi NNE 10.4 mph - N/A   Clear
9:55 PM 52.2 °F - 24.6 °F 34% 30.41 in 10.0 mi North 9.2 mph - N/A   Clear
10:55 PM 51.1 °F - 23.4 °F 34% 30.41 in 10.0 mi NNE 10.4 mph - N/A   Clear
11:55 PM 46.0 °F 42.5 °F 25.0 °F 44% 30.41 in 10.0 mi NE 6.9 mph - N/A   Clear